Weather History for Norfolk, VA

Change the Weather History Date:

Monday, November 26, 2012

  Actual Average Record
Temperature  
Mean Temperature 45 °F 50 °F  
Max Temperature 54 °F 58 °F 76 °F (1990)
Min Temperature 35 °F 42 °F 20 °F (1950)
Degree Days  
Heating Degree Days 20 15  
Month to date heating degree days 403 306  
Since 1 July heating degree days 545 463  
Cooling Degree Days 0 0  
Month to date cooling degree days 0 1  
Year to date cooling degree days 1850 1621  
Moisture  
Dew Point 30 °F    
Average Humidity 56    
Maximum Humidity 83    
Minimum Humidity 29    
Precipitation  
Precipitation 0.00 in 0.11 in 1.78 in (1958)
Month to date precipitation 0.87 2.73  
Year to date precipitation 43.80 42.85  
Snow  
Snow 0.00 in 0.00 in 0.00 in (2002)
Month to date snowfall 0.0 0.0  
Since 1 July snowfall 0.0 0.0  
Snow Depth 0.00 in    
Sea Level Pressure  
Sea Level Pressure 30.15 in    
Wind  
Wind Speed 4 mph (SSW)    
Max Wind Speed 13 mph    
Max Gust Speed 16 mph    
Visibility 10 miles    
Events      
T = Trace of Precipitation, MM = Missing Value Source: NWS Daily Summary

Daily Weather History Graph

Daily Weather History Graph

Search for Another Location

Airport:

Trip Planner

Search our weather history database for the weather conditions in past years. The results will help you decide how hot, cold, wet, or windy it might be!

Date:

Astronomy

Nov. 26, 2012 Rise Set
Actual Time 6:54 AM EST 4:49 PM EST
Civil Twilight 6:26 AM EST 5:17 PM EST
Nautical Twilight 5:54 AM EST 5:49 PM EST
Astronomical Twilight 5:23 AM EST 6:20 PM EST
Moon 3:39 PM EST (11/26) 5:04 AM EST (11/26)
Length of Visible Light 10h 51m
Length of Day
9h 54m
Waxing Gibbous, 97% of the Moon is Illuminated
Nov 26
Waxing Gibbous
Nov 28
Full
Dec 6
Last Quarter
Dec 13
New
Dec 20
First Quarter

Hourly Weather History & Observations

Time (EST) Temp. Windchill Dew Point Humidity Pressure Visibility Wind Dir Wind Speed Gust Speed Precip Events Conditions
12:51 AM 43.0 °F 37.7 °F 21.9 °F 43% 30.05 in 10.0 mi WSW 9.2 mph - N/A   Clear
1:51 AM 39.9 °F 34.5 °F 23.0 °F 51% 30.05 in 10.0 mi SW 8.1 mph - N/A   Clear
2:51 AM 39.9 °F 33.9 °F 24.1 °F 53% 30.07 in 10.0 mi SW 9.2 mph - N/A   Clear
3:51 AM 37.9 °F 34.4 °F 24.1 °F 57% 30.06 in 10.0 mi SW 4.6 mph - N/A   Clear
4:51 AM 41.0 °F 38.0 °F 24.1 °F 51% 30.09 in 10.0 mi West 4.6 mph - N/A   Clear
5:51 AM 36.0 °F 31.1 °F 25.0 °F 64% 30.11 in 10.0 mi SW 5.8 mph - N/A   Clear
6:51 AM 36.0 °F 33.3 °F 25.0 °F 64% 30.13 in 10.0 mi SW 3.5 mph - N/A   Clear
7:51 AM 39.0 °F 36.8 °F 28.0 °F 65% 30.15 in 10.0 mi SSW 3.5 mph - N/A   Clear
8:51 AM 44.1 °F 41.5 °F 28.0 °F 53% 30.17 in 10.0 mi SSW 4.6 mph - N/A   Clear
9:51 AM 50.0 °F - 27.0 °F 41% 30.19 in 10.0 mi Calm Calm - N/A   Clear
10:51 AM 54.0 °F - 23.0 °F 30% 30.19 in 10.0 mi Calm Calm - N/A   Clear
11:51 AM 52.0 °F - 23.0 °F 32% 30.17 in 10.0 mi NNE 6.9 mph - N/A   Clear
12:51 PM 52.0 °F - 30.9 °F 45% 30.17 in 10.0 mi NNE 6.9 mph - N/A   Clear
1:51 PM 52.0 °F - 34.0 °F 50% 30.17 in 10.0 mi NNE 8.1 mph - N/A   Clear
2:51 PM 52.0 °F - 36.0 °F 54% 30.17 in 10.0 mi ENE 5.8 mph - N/A   Clear
3:51 PM 52.0 °F - 34.0 °F 50% 30.17 in 10.0 mi SE 5.8 mph - N/A   Clear
4:51 PM 48.9 °F - 34.0 °F 56% 30.18 in 10.0 mi East 3.5 mph - N/A   Clear
5:51 PM 46.9 °F - 35.1 °F 63% 30.20 in 10.0 mi Calm Calm - N/A   Clear
6:51 PM 45.0 °F - 36.0 °F 71% 30.21 in 10.0 mi Calm Calm - N/A   Clear
7:51 PM 44.1 °F - 37.0 °F 76% 30.22 in 10.0 mi Calm Calm - N/A   Clear
8:51 PM 44.1 °F - 39.0 °F 82% 30.22 in 10.0 mi Calm Calm - N/A   Clear
9:51 PM 45.0 °F 41.8 °F 39.9 °F 82% 30.22 in 10.0 mi SSE 5.8 mph - N/A   Clear
10:51 PM 44.1 °F - 39.0 °F 82% 30.22 in 9.0 mi Calm Calm - N/A   Clear
11:51 PM 43.0 °F 39.5 °F 39.9 °F 89% 30.20 in 10.0 mi SSE 5.8 mph - N/A   Clear